G4GVZ-1 Weather Reports


Display with metric or nautical units.
time (UTC)temp
F
wind
direction
speed
MPH
gust
MPH
rain 1hr
in
rain 24hr
in
rain mn
in
humidity
%
barometer
mb
20260508024549 51 117 4.0 8.0 0.00 0.00 0.00 76 1014.6
20260508023051 51 118 5.0 9.0 0.00 0.00 0.00 76 1014.6
20260508021550 51 123 5.0 10.0 0.00 0.00 0.00 76 1014.6
20260508020050 51 124 5.0 9.0 0.00 0.00 0.00 75 1014.6
20260508014550 51 112 5.0 9.0 0.00 0.00 0.00 75 1014.7
20260508013050 51 112 5.0 10.0 0.00 0.00 0.00 75 1014.7
20260508011550 51 122 5.0 9.0 0.00 0.00 0.00 74 1014.9
20260508010049 51 138 5.0 9.0 0.00 0.00 0.00 72 1014.9
20260508004549 51 145 3.0 8.0 0.00 0.00 0.00 71 1014.8
20260508003049 52 138 4.0 12.0 0.00 0.00 0.00 70 1014.8
20260508001551 52 139 4.0 10.0 0.00 0.00 0.00 70 1014.9
20260508000051 52 152 4.0 9.0 0.00 0.00 0.00 71 1014.8
20260507234550 53 159 4.0 10.0 0.00 0.00 0.00 70 1014.8
20260507233050 53 176 3.0 11.0 0.00 0.00 0.00 69 1014.9
20260507231552 53 167 3.0 13.0 0.00 0.00 0.00 70 1014.9
20260507230052 54 152 5.0 12.0 0.00 0.00 0.00 72 1014.8
20260507224552 54 168 4.0 11.0 0.00 0.00 0.00 70 1014.9
20260507223052 55 207 3.0 7.0 0.00 0.00 0.00 68 1014.8
20260507221551 55 216 2.0 7.0 0.00 0.00 0.00 66 1014.9
20260507220051 55 216 2.0 5.0 0.00 0.00 0.00 66 1015.0
20260507214551 54 216 0.0 4.0 0.00 0.00 0.00 68 1015.0
20260507213051 54 0 0.0 0.0 0.00 0.00 0.00 71 1015.0
20260507211550 54 216 0.0 3.0 0.00 0.00 0.00 71 1014.9
20260507210050 54 0 0.0 0.0 0.00 0.00 0.00 71 1014.8
20260507204550 54 0 0.0 0.0 0.00 0.00 0.00 71 1014.7
20260507203052 54 0 0.0 0.0 0.00 0.00 0.00 71 1014.6
20260507201551 54 0 0.0 0.0 0.00 0.00 0.00 71 1014.5
20260507200051 54 216 0.0 6.0 0.00 0.00 0.00 72 1014.3
20260507194551 55 216 0.0 6.0 0.00 0.00 0.00 72 1014.1
20260507193051 54 0 0.0 0.0 0.00 0.00 0.00 75 1014.0
20260507191551 54 0 0.0 0.0 0.00 0.00 0.00 75 1014.1
20260507190053 54 0 0.0 0.0 0.00 0.00 0.00 74 1014.0
20260507184551 54 217 0.0 1.0 0.00 0.00 0.00 75 1014.1
20260507183051 54 216 0.0 2.0 0.00 0.00 0.00 76 1014.0
20260507181551 55 216 0.0 5.0 0.00 0.00 0.00 75 1013.9
20260507180050 55 216 0.0 3.0 0.00 0.00 0.00 75 1013.9
20260507174550 55 216 0.0 6.0 0.00 0.00 0.00 76 1013.8
20260507173052 55 216 0.0 5.0 0.00 0.00 0.00 74 1013.8
20260507171552 56 215 4.0 10.0 0.00 0.00 0.00 70 1013.9
20260507170052 56 213 1.0 7.0 0.00 0.00 0.00 68 1013.9
20260507164553 57 211 3.0 9.0 0.00 0.00 0.00 64 1013.9
20260507163051 57 204 4.0 9.0 0.00 0.00 0.00 62 1013.9
20260507161551 58 200 0.0 7.0 0.00 0.00 0.00 59 1013.9
20260507160051 58 200 2.0 7.0 0.00 0.00 0.00 56 1013.9
20260507154551 58 200 1.0 6.0 0.00 0.00 0.00 55 1014.0
20260507153051 58 200 4.0 9.0 0.00 0.00 0.00 53 1013.9
20260507151553 59 200 3.0 8.0 0.00 0.00 0.00 53 1014.0
20260507150053 59 184 4.0 11.0 0.00 0.00 0.00 53 1014.0
20260507144551 60 176 4.0 11.0 0.00 0.00 0.00 52 1014.0
20260507143051 60 174 1.0 7.0 0.00 0.00 0.00 52 1014.0
20260507141553 60 174 4.0 14.0 0.00 0.00 0.00 52 1014.1
20260507140053 60 160 3.0 11.0 0.00 0.00 0.00 50 1014.3
20260507134551 60 146 4.0 11.0 0.00 0.00 0.00 48 1014.2
20260507133051 61 156 5.0 11.0 0.00 0.00 0.00 48 1014.3
20260507131553 62 174 6.0 14.0 0.00 0.00 0.00 45 1014.3
20260507130053 61 171 5.0 12.0 0.00 0.00 0.00 46 1014.4
20260507124552 61 158 4.0 12.0 0.00 0.00 0.00 46 1014.5
20260507123052 62 136 4.0 12.0 0.00 0.00 0.00 44 1014.5
20260507121552 62 190 3.0 12.0 0.00 0.00 0.00 47 1014.5
20260507120052 61 154 4.0 12.0 0.00 0.00 0.00 50 1014.6
20260507114551 61 192 3.0 11.0 0.00 0.00 0.00 50 1014.7
20260507113051 60 175 5.0 11.0 0.00 0.00 0.00 49 1015.1
20260507111551 60 162 2.0 9.0 0.00 0.00 0.00 56 1014.9
20260507110053 57 116 3.0 12.0 0.00 0.00 0.00 61 1015.1
20260507104548 56 109 3.0 9.0 0.00 0.00 0.00 64 1015.2
20260507103048 54 117 4.0 9.0 0.00 0.00 0.00 69 1015.0
20260507101548 54 144 4.0 11.0 0.00 0.00 0.00 71 1015.3
20260507100047 53 153 2.0 9.0 0.00 0.00 0.00 72 1015.4
20260507094547 53 116 3.0 11.0 0.00 0.00 0.00 72 1015.6
20260507093047 51 98 2.0 6.0 0.00 0.00 0.00 76 1015.5
20260507091549 50 98 2.0 9.0 0.00 0.00 0.00 79 1015.5
20260507090050 49 98 4.0 8.0 0.00 0.00 0.00 80 1015.4
20260507084549 49 98 4.0 9.0 0.00 0.00 0.00 80 1015.5
20260507083050 48 98 3.0 10.0 0.00 0.00 0.00 81 1015.5
20260507081548 47 97 5.0 9.0 0.00 0.00 0.00 82 1015.3
20260507080048 47 97 6.0 11.0 0.00 0.00 0.00 84 1015.4
20260507074548 47 97 4.0 8.0 0.00 0.00 0.00 85 1015.3
20260507073047 46 96 3.0 7.0 0.00 0.00 0.00 86 1015.1
20260507071547 46 96 3.0 7.0 0.00 0.00 0.00 87 1015.1
20260507070047 45 97 5.0 11.0 0.00 0.00 0.00 88 1015.2
20260507064550 45 97 6.0 12.0 0.00 0.00 0.00 88 1015.2
20260507063049 45 96 5.0 8.0 0.00 0.00 0.00 88 1015.0
20260507061549 44 96 3.0 7.0 0.00 0.00 0.00 89 1015.0
20260507060049 44 96 4.0 9.0 0.00 0.00 0.00 89 1014.9
20260507054549 44 97 7.0 12.0 0.00 0.00 0.00 89 1014.9
20260507053049 43 99 8.0 14.0 0.00 0.00 0.00 89 1014.7
20260507051548 44 104 5.0 12.0 0.00 0.00 0.00 89 1014.8
20260507050050 43 104 7.0 13.0 0.00 0.00 0.00 89 1014.8
20260507044550 43 102 6.0 11.0 0.00 0.00 0.00 89 1014.6
20260507043050 43 100 7.0 12.0 0.00 0.00 0.00 90 1014.5
20260507041549 43 100 4.0 8.0 0.00 0.00 0.00 90 1014.6
20260507040049 43 100 5.0 9.0 0.00 0.00 0.00 90 1014.6
20260507034549 43 100 6.0 10.0 0.00 0.00 0.00 90 1014.4
20260507033049 43 100 4.0 8.0 0.00 0.00 0.00 91 1014.5
20260507031549 42 101 7.0 11.0 0.00 0.00 0.00 91 1014.6
20260507030048 42 102 6.0 10.0 0.00 0.00 0.00 91 1014.7